Year,Month,Day,Hour,Minute,Value (Times are PST for windgust in km/hr)
2015,11,15,00,00,8.10
2015,11,15,00,01,8.10
2015,11,15,00,02,4.80
2015,11,15,00,03,8.10
2015,11,15,00,04,8.10
2015,11,15,00,05,6.40
2015,11,15,00,06,6.40
2015,11,15,00,07,6.40
2015,11,15,00,08,4.80
2015,11,15,00,09,4.80
2015,11,15,00,10,4.80
2015,11,15,00,11,6.40
2015,11,15,00,12,6.40
2015,11,15,00,13,4.80
2015,11,15,00,14,6.40
2015,11,15,00,15,6.40
2015,11,15,00,16,6.40
2015,11,15,00,17,6.40
2015,11,15,00,18,6.40
2015,11,15,00,19,4.80
2015,11,15,00,20,4.80
2015,11,15,00,21,6.40
2015,11,15,00,22,6.40
2015,11,15,00,23,4.80
2015,11,15,00,24,8.10
2015,11,15,00,25,14.50
2015,11,15,00,26,8.10
2015,11,15,00,27,6.40
2015,11,15,00,28,6.40
2015,11,15,00,29,11.30
2015,11,15,00,30,12.90
2015,11,15,00,31,4.80
2015,11,15,00,32,9.60
2015,11,15,00,33,8.10
2015,11,15,00,34,6.40
2015,11,15,00,35,6.40
2015,11,15,00,36,4.80
2015,11,15,00,37,6.40
2015,11,15,00,38,3.20
2015,11,15,00,39,4.80
2015,11,15,00,40,6.40
2015,11,15,00,41,8.10
2015,11,15,00,42,8.10
2015,11,15,00,43,6.40
2015,11,15,00,44,4.80
2015,11,15,00,45,6.40
2015,11,15,00,46,4.80
2015,11,15,00,47,4.80
2015,11,15,00,48,4.80
2015,11,15,00,49,3.20
2015,11,15,00,50,4.80
2015,11,15,00,51,4.80
2015,11,15,00,52,4.80
2015,11,15,00,53,6.40
2015,11,15,00,54,4.80
2015,11,15,00,55,3.20
2015,11,15,00,56,3.20
2015,11,15,00,57,3.20
2015,11,15,00,58,1.60
2015,11,15,00,59,3.20
2015,11,15,01,00,4.80
2015,11,15,01,01,3.20
2015,11,15,01,02,3.20
2015,11,15,01,03,3.20
2015,11,15,01,04,6.40
2015,11,15,01,05,4.80
2015,11,15,01,06,3.20
2015,11,15,01,07,4.80
2015,11,15,01,08,4.80
2015,11,15,01,09,3.20
2015,11,15,01,10,3.20
2015,11,15,01,11,3.20
2015,11,15,01,12,3.20
2015,11,15,01,13,4.80
2015,11,15,01,14,3.20
2015,11,15,01,15,4.80
2015,11,15,01,16,1.60
2015,11,15,01,22,3.20
2015,11,15,01,23,1.60
2015,11,15,01,24,3.20
2015,11,15,01,25,6.40
2015,11,15,01,26,4.80
2015,11,15,01,27,3.20
2015,11,15,01,29,3.20
2015,11,15,01,31,6.40
2015,11,15,01,32,4.80
2015,11,15,01,33,6.40
2015,11,15,01,34,6.40
2015,11,15,01,35,4.80
2015,11,15,01,36,6.40
2015,11,15,01,37,3.20
2015,11,15,01,38,1.60
2015,11,15,01,39,1.60
2015,11,15,01,40,4.80
2015,11,15,01,41,4.80
2015,11,15,01,42,4.80
2015,11,15,01,43,3.20
2015,11,15,01,44,3.20
2015,11,15,01,45,6.40
2015,11,15,01,46,6.40
2015,11,15,01,47,3.20
2015,11,15,01,48,3.20
2015,11,15,01,49,3.20
2015,11,15,01,50,4.80
2015,11,15,01,51,4.80
2015,11,15,01,52,6.40
2015,11,15,01,53,6.40
2015,11,15,01,54,3.20
2015,11,15,01,55,3.20
2015,11,15,01,56,4.80
2015,11,15,01,57,4.80
2015,11,15,01,58,1.60
2015,11,15,01,59,4.80
2015,11,15,02,00,6.40
2015,11,15,02,01,3.20
2015,11,15,02,04,3.20
2015,11,15,02,05,3.20
2015,11,15,02,06,3.20
2015,11,15,02,07,3.20
2015,11,15,02,08,4.80
2015,11,15,02,09,3.20
2015,11,15,02,10,6.40
2015,11,15,02,11,4.80
2015,11,15,02,12,6.40
2015,11,15,02,13,6.40
2015,11,15,02,14,4.80
2015,11,15,02,15,4.80
2015,11,15,02,16,4.80
2015,11,15,02,17,4.80
2015,11,15,02,18,8.10
2015,11,15,02,19,6.40
2015,11,15,02,20,4.80
2015,11,15,02,21,4.80
2015,11,15,02,22,4.80
2015,11,15,02,23,8.10
2015,11,15,02,24,8.10
2015,11,15,02,25,4.80
2015,11,15,02,26,3.20
2015,11,15,02,27,4.80
2015,11,15,02,28,4.80
2015,11,15,02,29,4.80
2015,11,15,02,30,1.60
2015,11,15,02,35,4.80
2015,11,15,02,36,6.40
2015,11,15,02,37,4.80
2015,11,15,02,38,4.80
2015,11,15,02,39,4.80
2015,11,15,02,40,6.40
2015,11,15,02,41,4.80
2015,11,15,02,42,4.80
2015,11,15,02,43,4.80
2015,11,15,02,44,4.80
2015,11,15,02,45,4.80
2015,11,15,02,46,4.80
2015,11,15,02,47,6.40
2015,11,15,02,48,3.20
2015,11,15,02,49,3.20
2015,11,15,02,50,4.80
2015,11,15,02,51,4.80
2015,11,15,02,52,4.80
2015,11,15,02,53,4.80
2015,11,15,02,54,4.80
2015,11,15,02,55,4.80
2015,11,15,02,56,6.40
2015,11,15,02,57,8.10
2015,11,15,02,58,6.40
2015,11,15,02,59,8.10
2015,11,15,03,00,4.80
2015,11,15,03,01,3.20
2015,11,15,03,02,3.20
2015,11,15,03,03,4.80
2015,11,15,03,04,4.80
2015,11,15,03,05,1.60
2015,11,15,03,07,3.20
2015,11,15,03,08,1.60
2015,11,15,03,14,3.20
2015,11,15,03,15,3.20
2015,11,15,03,20,6.40
2015,11,15,03,21,4.80
2015,11,15,03,22,1.60
2015,11,15,03,28,4.80
2015,11,15,03,29,6.40
2015,11,15,03,30,6.40
2015,11,15,03,37,1.60
2015,11,15,03,42,6.40
2015,11,15,03,43,6.40
2015,11,15,03,44,8.10
2015,11,15,03,45,4.80
2015,11,15,03,49,1.60
2015,11,15,03,50,6.40
2015,11,15,03,51,4.80
2015,11,15,03,52,6.40
2015,11,15,03,53,6.40
2015,11,15,03,54,6.40
2015,11,15,03,55,4.80
2015,11,15,03,56,4.80
2015,11,15,03,57,4.80
2015,11,15,03,59,3.20
2015,11,15,04,00,4.80
2015,11,15,04,01,4.80
2015,11,15,04,02,6.40
2015,11,15,04,03,4.80
2015,11,15,04,04,4.80
2015,11,15,04,05,4.80
2015,11,15,04,06,3.20
2015,11,15,04,07,4.80
2015,11,15,04,08,3.20
2015,11,15,04,09,4.80
2015,11,15,04,10,4.80
2015,11,15,04,11,3.20
2015,11,15,04,12,3.20
2015,11,15,04,13,4.80
2015,11,15,04,14,1.60
2015,11,15,04,15,4.80
2015,11,15,04,16,4.80
2015,11,15,04,17,3.20
2015,11,15,04,18,1.60
2015,11,15,04,19,3.20
2015,11,15,04,20,1.60
2015,11,15,04,27,4.80
2015,11,15,04,28,6.40
2015,11,15,04,29,4.80
2015,11,15,04,30,4.80
2015,11,15,04,31,4.80
2015,11,15,04,32,6.40
2015,11,15,04,33,4.80
2015,11,15,04,34,6.40
2015,11,15,04,35,4.80
2015,11,15,04,36,6.40
2015,11,15,04,37,4.80
2015,11,15,04,38,6.40
2015,11,15,04,39,4.80
2015,11,15,04,40,8.10
2015,11,15,04,41,6.40
2015,11,15,04,42,6.40
2015,11,15,04,43,6.40
2015,11,15,04,44,6.40
2015,11,15,04,45,8.10
2015,11,15,04,46,6.40
2015,11,15,04,47,6.40
2015,11,15,04,48,4.80
2015,11,15,04,49,6.40
2015,11,15,04,50,8.10
2015,11,15,04,51,8.10
2015,11,15,04,52,8.10
2015,11,15,04,53,6.40
2015,11,15,04,54,8.10
2015,11,15,04,55,4.80
2015,11,15,04,56,6.40
2015,11,15,04,57,6.40
2015,11,15,04,58,3.20
2015,11,15,05,07,3.20
2015,11,15,05,08,3.20
2015,11,15,05,09,4.80
2015,11,15,05,10,4.80
2015,11,15,05,11,4.80
2015,11,15,05,12,3.20
2015,11,15,05,13,3.20
2015,11,15,05,14,3.20
2015,11,15,05,15,4.80
2015,11,15,05,16,6.40
2015,11,15,05,17,8.10
2015,11,15,05,18,8.10
2015,11,15,05,19,9.60
2015,11,15,05,20,8.10
2015,11,15,05,21,6.40
2015,11,15,05,22,8.10
2015,11,15,05,23,8.10
2015,11,15,05,24,8.10
2015,11,15,05,25,8.10
2015,11,15,05,26,6.40
2015,11,15,05,27,8.10
2015,11,15,05,28,8.10
2015,11,15,05,29,8.10
2015,11,15,05,30,8.10
2015,11,15,05,31,11.30
2015,11,15,05,32,11.30
2015,11,15,05,33,9.60
2015,11,15,05,34,11.30
2015,11,15,05,35,9.60
2015,11,15,05,36,14.50
2015,11,15,05,37,8.10
2015,11,15,05,38,11.30
2015,11,15,05,39,9.60
2015,11,15,05,40,11.30
2015,11,15,05,41,8.10
2015,11,15,05,42,9.60
2015,11,15,05,43,4.80
2015,11,15,05,44,6.40
2015,11,15,05,45,6.40
2015,11,15,05,46,8.10
2015,11,15,05,47,4.80
2015,11,15,05,48,9.60
2015,11,15,05,49,8.10
2015,11,15,05,50,6.40
2015,11,15,05,51,8.10
2015,11,15,05,52,4.80
2015,11,15,05,53,3.20
2015,11,15,05,54,1.60
2015,11,15,05,57,4.80
2015,11,15,05,58,6.40
2015,11,15,06,08,1.60
2015,11,15,06,20,1.60
2015,11,15,06,29,3.20
2015,11,15,06,33,1.60
2015,11,15,06,36,1.60
2015,11,15,06,37,3.20
2015,11,15,06,38,3.20
2015,11,15,06,40,3.20
2015,11,15,06,44,4.80
2015,11,15,06,45,4.80
2015,11,15,06,46,3.20
2015,11,15,06,47,4.80
2015,11,15,06,48,4.80
2015,11,15,06,49,4.80
2015,11,15,06,50,4.80
2015,11,15,06,51,1.60
2015,11,15,06,52,6.40
2015,11,15,06,53,9.60
2015,11,15,06,54,8.10
2015,11,15,06,55,4.80
2015,11,15,06,56,3.20
2015,11,15,06,57,1.60
2015,11,15,07,11,1.60
2015,11,15,07,23,1.60
2015,11,15,07,24,4.80
2015,11,15,07,25,6.40
2015,11,15,07,26,3.20
2015,11,15,07,27,1.60
2015,11,15,07,28,4.80
2015,11,15,07,29,4.80
2015,11,15,07,30,4.80
2015,11,15,07,32,4.80
2015,11,15,07,33,6.40
2015,11,15,07,34,8.10
2015,11,15,07,35,8.10
2015,11,15,07,36,4.80
2015,11,15,07,37,3.20
2015,11,15,07,38,6.40
2015,11,15,07,39,6.40
2015,11,15,07,40,8.10
2015,11,15,07,41,6.40
2015,11,15,07,42,4.80
2015,11,15,07,43,4.80
2015,11,15,07,44,6.40
2015,11,15,07,45,3.20
2015,11,15,07,46,6.40
2015,11,15,07,47,8.10
2015,11,15,07,48,8.10
2015,11,15,07,49,6.40
2015,11,15,07,50,6.40
2015,11,15,07,51,6.40
2015,11,15,07,52,6.40
2015,11,15,07,53,8.10
2015,11,15,07,54,11.30
2015,11,15,07,55,6.40
2015,11,15,07,56,6.40
2015,11,15,07,57,8.10
2015,11,15,07,58,8.10
2015,11,15,07,59,6.40
2015,11,15,08,00,4.80
2015,11,15,08,01,8.10
2015,11,15,08,02,6.40
2015,11,15,08,03,8.10
2015,11,15,08,04,8.10
2015,11,15,08,05,11.30
2015,11,15,08,06,9.60
2015,11,15,08,07,6.40
2015,11,15,08,08,6.40
2015,11,15,08,09,8.10
2015,11,15,08,10,9.60
2015,11,15,08,11,6.40
2015,11,15,08,12,6.40
2015,11,15,08,13,4.80
2015,11,15,08,14,8.10
2015,11,15,08,15,9.60
2015,11,15,08,16,8.10
2015,11,15,08,17,6.40
2015,11,15,08,18,8.10
2015,11,15,08,19,9.60
2015,11,15,08,20,9.60
2015,11,15,08,21,8.10
2015,11,15,08,22,9.60
2015,11,15,08,23,6.40
2015,11,15,08,24,9.60
2015,11,15,08,25,8.10
2015,11,15,08,26,8.10
2015,11,15,08,27,9.60
2015,11,15,08,28,11.30
2015,11,15,08,29,11.30
2015,11,15,08,30,6.40
2015,11,15,08,31,6.40
2015,11,15,08,32,12.90
2015,11,15,08,33,12.90
2015,11,15,08,34,11.30
2015,11,15,08,35,11.30
2015,11,15,08,36,8.10
2015,11,15,08,37,11.30
2015,11,15,08,38,12.90
2015,11,15,08,39,19.30
2015,11,15,08,40,14.50
2015,11,15,08,41,12.90
2015,11,15,08,42,14.50
2015,11,15,08,43,11.30
2015,11,15,08,44,11.30
2015,11,15,08,45,9.60
2015,11,15,08,46,12.90
2015,11,15,08,47,14.50
2015,11,15,08,48,9.60
2015,11,15,08,49,16.10
2015,11,15,08,50,11.30
2015,11,15,08,51,9.60
2015,11,15,08,52,8.10
2015,11,15,08,53,11.30
2015,11,15,08,54,11.30
2015,11,15,08,55,6.40
2015,11,15,08,56,9.60
2015,11,15,08,57,9.60
2015,11,15,08,58,11.30
2015,11,15,08,59,8.10
2015,11,15,09,00,16.10
2015,11,15,09,01,11.30
2015,11,15,09,02,9.60
2015,11,15,09,03,9.60
2015,11,15,09,04,11.30
2015,11,15,09,05,17.70
2015,11,15,09,06,12.90
2015,11,15,09,07,24.20
2015,11,15,09,08,17.70
2015,11,15,09,09,12.90
2015,11,15,09,10,14.50
2015,11,15,09,11,14.50
2015,11,15,09,12,14.50
2015,11,15,09,13,14.50
2015,11,15,09,14,16.10
2015,11,15,09,15,20.90
2015,11,15,09,16,20.90
2015,11,15,09,17,20.90
2015,11,15,09,18,19.30
2015,11,15,09,19,17.70
2015,11,15,09,20,17.70
2015,11,15,09,21,11.30
2015,11,15,09,22,17.70
2015,11,15,09,23,22.50
2015,11,15,09,24,16.10
2015,11,15,09,25,14.50
2015,11,15,09,26,12.90
2015,11,15,09,27,12.90
2015,11,15,09,28,11.30
2015,11,15,09,29,14.50
2015,11,15,09,30,11.30
2015,11,15,09,31,14.50
2015,11,15,09,32,12.90
2015,11,15,09,33,17.70
2015,11,15,09,34,12.90
2015,11,15,09,35,12.90
2015,11,15,09,36,12.90
2015,11,15,09,37,9.60
2015,11,15,09,38,14.50
2015,11,15,09,39,11.30
2015,11,15,09,40,9.60
2015,11,15,09,41,9.60
2015,11,15,09,42,9.60
2015,11,15,09,43,9.60
2015,11,15,09,44,11.30
2015,11,15,09,45,8.10
2015,11,15,09,46,11.30
2015,11,15,09,47,12.90
2015,11,15,09,48,14.50
2015,11,15,09,49,17.70
2015,11,15,09,50,19.30
2015,11,15,09,51,17.70
2015,11,15,09,52,16.10
2015,11,15,09,53,16.10
2015,11,15,09,54,12.90
2015,11,15,09,55,11.30
2015,11,15,09,56,16.10
2015,11,15,09,57,20.90
2015,11,15,09,58,17.70
2015,11,15,09,59,16.10
2015,11,15,10,00,20.90
2015,11,15,10,01,22.50
2015,11,15,10,02,19.30
2015,11,15,10,03,17.70
2015,11,15,10,04,14.50
2015,11,15,10,05,20.90
2015,11,15,10,06,24.20
2015,11,15,10,07,20.90
2015,11,15,10,08,19.30
2015,11,15,10,09,19.30
2015,11,15,10,10,16.10
2015,11,15,10,11,17.70
2015,11,15,10,12,11.30
2015,11,15,10,13,14.50
2015,11,15,10,14,17.70
2015,11,15,10,15,12.90
2015,11,15,10,16,19.30
2015,11,15,10,17,16.10
2015,11,15,10,18,19.30
2015,11,15,10,19,16.10
2015,11,15,10,20,6.40
2015,11,15,10,21,8.10
2015,11,15,10,22,20.90
2015,11,15,10,23,24.20
2015,11,15,10,24,19.30
2015,11,15,10,25,11.30
2015,11,15,10,26,8.10
2015,11,15,10,27,12.90
2015,11,15,10,28,8.10
2015,11,15,10,29,8.10
2015,11,15,10,30,19.30
2015,11,15,10,31,9.60
2015,11,15,10,32,6.40
2015,11,15,10,33,12.90
2015,11,15,10,34,17.70
2015,11,15,10,35,19.30
2015,11,15,10,36,19.30
2015,11,15,10,37,14.50
2015,11,15,10,38,12.90
2015,11,15,10,39,6.40
2015,11,15,10,40,8.10
2015,11,15,10,41,9.60
2015,11,15,10,42,14.50
2015,11,15,10,43,19.30
2015,11,15,10,44,14.50
2015,11,15,10,45,17.70
2015,11,15,10,46,11.30
2015,11,15,10,47,16.10
2015,11,15,10,48,19.30
2015,11,15,10,49,20.90
2015,11,15,10,50,16.10
2015,11,15,10,51,22.50
2015,11,15,10,52,12.90
2015,11,15,10,53,11.30
2015,11,15,10,54,17.70
2015,11,15,10,55,17.70
2015,11,15,10,56,14.50
2015,11,15,10,57,4.80
2015,11,15,10,58,11.30
2015,11,15,10,59,19.30
2015,11,15,11,00,24.20
2015,11,15,11,01,16.10
2015,11,15,11,02,14.50
2015,11,15,11,03,14.50
2015,11,15,11,04,14.50
2015,11,15,11,05,20.90
2015,11,15,11,06,12.90
2015,11,15,11,07,12.90
2015,11,15,11,08,25.70
2015,11,15,11,09,17.70
2015,11,15,11,10,19.30
2015,11,15,11,11,12.90
2015,11,15,11,12,19.30
2015,11,15,11,13,20.90
2015,11,15,11,14,25.70
2015,11,15,11,15,12.90
2015,11,15,11,16,12.90
2015,11,15,11,17,27.40
2015,11,15,11,18,20.90
2015,11,15,11,19,14.50
2015,11,15,11,20,19.30
2015,11,15,11,21,19.30
2015,11,15,11,22,12.90
2015,11,15,11,23,17.70
2015,11,15,11,24,20.90
2015,11,15,11,25,16.10
2015,11,15,11,26,14.50
2015,11,15,11,27,20.90
2015,11,15,11,28,9.60
2015,11,15,11,29,19.30
2015,11,15,11,30,20.90
2015,11,15,11,31,22.50
2015,11,15,11,32,17.70
2015,11,15,11,33,14.50
2015,11,15,11,34,16.10
2015,11,15,11,35,20.90
2015,11,15,11,36,25.70
2015,11,15,11,37,17.70
2015,11,15,11,38,19.30
2015,11,15,11,39,11.30
2015,11,15,11,40,11.30
2015,11,15,11,41,12.90
2015,11,15,11,42,20.90
2015,11,15,11,43,25.70
2015,11,15,11,44,17.70
2015,11,15,11,45,12.90
2015,11,15,11,46,9.60
2015,11,15,11,47,11.30
2015,11,15,11,48,14.50
2015,11,15,11,49,9.60
2015,11,15,11,50,11.30
2015,11,15,11,51,9.60
2015,11,15,11,52,14.50
2015,11,15,11,53,11.30
2015,11,15,11,54,11.30
2015,11,15,11,55,12.90
2015,11,15,11,56,17.70
2015,11,15,11,57,9.60
2015,11,15,11,58,9.60
2015,11,15,11,59,11.30
2015,11,15,12,00,12.90
2015,11,15,12,01,16.10
2015,11,15,12,02,20.90
2015,11,15,12,03,9.60
2015,11,15,12,04,12.90
2015,11,15,12,05,9.60
2015,11,15,12,06,11.30
2015,11,15,12,07,8.10
2015,11,15,12,08,12.90
2015,11,15,12,09,8.10
2015,11,15,12,10,8.10
2015,11,15,12,11,8.10
2015,11,15,12,12,4.80
2015,11,15,12,13,3.20
2015,11,15,12,14,8.10
2015,11,15,12,15,6.40
2015,11,15,12,16,6.40
2015,11,15,12,17,6.40
2015,11,15,12,18,11.30
2015,11,15,12,19,6.40
2015,11,15,12,20,6.40
2015,11,15,12,21,6.40
2015,11,15,12,22,11.30
2015,11,15,12,23,9.60
2015,11,15,12,24,9.60
2015,11,15,12,25,9.60
2015,11,15,12,26,11.30
2015,11,15,12,27,8.10
2015,11,15,12,28,1.60
2015,11,15,12,29,1.60
2015,11,15,12,30,3.20
2015,11,15,12,31,8.10
2015,11,15,12,32,6.40
2015,11,15,12,33,6.40
2015,11,15,12,34,8.10
2015,11,15,12,35,8.10
2015,11,15,12,36,9.60
2015,11,15,12,37,16.10
2015,11,15,12,38,12.90
2015,11,15,12,39,12.90
2015,11,15,12,40,14.50
2015,11,15,12,41,12.90
2015,11,15,12,42,11.30
2015,11,15,12,43,9.60
2015,11,15,12,44,24.20
2015,11,15,12,45,14.50
2015,11,15,12,46,20.90
2015,11,15,12,47,20.90
2015,11,15,12,48,20.90
2015,11,15,12,49,14.50
2015,11,15,12,50,14.50
2015,11,15,12,51,6.40
2015,11,15,12,52,8.10
2015,11,15,12,53,9.60
2015,11,15,12,54,9.60
2015,11,15,12,55,14.50
2015,11,15,12,56,11.30
2015,11,15,12,57,9.60
2015,11,15,12,58,11.30
2015,11,15,12,59,11.30
2015,11,15,13,00,19.30
2015,11,15,13,01,22.50
2015,11,15,13,02,11.30
2015,11,15,13,03,9.60
2015,11,15,13,04,11.30
2015,11,15,13,05,12.90
2015,11,15,13,06,14.50
2015,11,15,13,07,14.50
2015,11,15,13,08,11.30
2015,11,15,13,09,3.20
2015,11,15,13,10,3.20
2015,11,15,13,11,14.50
2015,11,15,13,12,19.30
2015,11,15,13,13,22.50
2015,11,15,13,14,8.10
2015,11,15,13,15,9.60
2015,11,15,13,16,9.60
2015,11,15,13,17,16.10
2015,11,15,13,18,12.90
2015,11,15,13,19,12.90
2015,11,15,13,20,11.30
2015,11,15,13,21,11.30
2015,11,15,13,22,16.10
2015,11,15,13,23,11.30
2015,11,15,13,24,9.60
2015,11,15,13,25,12.90
2015,11,15,13,26,9.60
2015,11,15,13,27,11.30
2015,11,15,13,28,12.90
2015,11,15,13,29,17.70
2015,11,15,13,30,17.70
2015,11,15,13,31,12.90
2015,11,15,13,32,14.50
2015,11,15,13,33,16.10
2015,11,15,13,34,22.50
2015,11,15,13,35,22.50
2015,11,15,13,36,19.30
2015,11,15,13,37,17.70
2015,11,15,13,38,17.70
2015,11,15,13,39,12.90
2015,11,15,13,40,16.10
2015,11,15,13,41,29.00
2015,11,15,13,42,17.70
2015,11,15,13,43,22.50
2015,11,15,13,44,20.90
2015,11,15,13,45,17.70
2015,11,15,13,46,25.70
2015,11,15,13,47,19.30
2015,11,15,13,48,17.70
2015,11,15,13,49,14.50
2015,11,15,13,50,12.90
2015,11,15,13,51,16.10
2015,11,15,13,52,16.10
2015,11,15,13,53,19.30
2015,11,15,13,54,27.40
2015,11,15,13,55,17.70
2015,11,15,13,56,11.30
2015,11,15,13,57,25.70
2015,11,15,13,58,22.50
2015,11,15,13,59,22.50
2015,11,15,14,00,20.90
2015,11,15,14,01,12.90
2015,11,15,14,02,19.30
2015,11,15,14,03,25.70
2015,11,15,14,04,22.50
2015,11,15,14,05,27.40
2015,11,15,14,06,17.70
2015,11,15,14,07,17.70
2015,11,15,14,08,14.50
2015,11,15,14,09,14.50
2015,11,15,14,10,12.90
2015,11,15,14,11,16.10
2015,11,15,14,12,27.40
2015,11,15,14,13,24.20
2015,11,15,14,14,19.30
2015,11,15,14,15,24.20
2015,11,15,14,16,20.90
2015,11,15,14,17,14.50
2015,11,15,14,18,16.10
2015,11,15,14,19,24.20
2015,11,15,14,20,24.20
2015,11,15,14,21,22.50
2015,11,15,14,22,20.90
2015,11,15,14,23,20.90
2015,11,15,14,24,20.90
2015,11,15,14,25,19.30
2015,11,15,14,26,17.70
2015,11,15,14,27,20.90
2015,11,15,14,28,24.20
2015,11,15,14,29,19.30
2015,11,15,14,30,17.70
2015,11,15,14,31,16.10
2015,11,15,14,32,16.10
2015,11,15,14,33,19.30
2015,11,15,14,34,19.30
2015,11,15,14,35,19.30
2015,11,15,14,36,27.40
2015,11,15,14,37,20.90
2015,11,15,14,38,12.90
2015,11,15,14,39,20.90
2015,11,15,14,40,14.50
2015,11,15,14,41,12.90
2015,11,15,14,42,22.50
2015,11,15,14,43,20.90
2015,11,15,14,44,22.50
2015,11,15,14,45,22.50
2015,11,15,14,46,20.90
2015,11,15,14,47,12.90
2015,11,15,14,48,20.90
2015,11,15,14,49,16.10
2015,11,15,14,50,9.60
2015,11,15,14,51,16.10
2015,11,15,14,52,17.70
2015,11,15,14,53,12.90
2015,11,15,14,54,14.50
2015,11,15,14,55,11.30
2015,11,15,14,56,17.70
2015,11,15,14,57,12.90
2015,11,15,14,58,12.90
2015,11,15,14,59,14.50
2015,11,15,15,00,14.50
2015,11,15,15,01,17.70
2015,11,15,15,02,11.30
2015,11,15,15,03,12.90
2015,11,15,15,04,14.50
2015,11,15,15,05,9.60
2015,11,15,15,06,12.90
2015,11,15,15,07,11.30
2015,11,15,15,08,11.30
2015,11,15,15,09,9.60
2015,11,15,15,10,9.60
2015,11,15,15,11,12.90
2015,11,15,15,12,17.70
2015,11,15,15,13,12.90
2015,11,15,15,14,9.60
2015,11,15,15,15,11.30
2015,11,15,15,16,16.10
2015,11,15,15,17,14.50
2015,11,15,15,18,14.50
2015,11,15,15,19,14.50
2015,11,15,15,20,14.50
2015,11,15,15,21,12.90
2015,11,15,15,22,14.50
2015,11,15,15,23,12.90
2015,11,15,15,24,8.10
2015,11,15,15,25,11.30
2015,11,15,15,26,8.10
2015,11,15,15,27,14.50
2015,11,15,15,28,12.90
2015,11,15,15,29,14.50
2015,11,15,15,30,12.90
2015,11,15,15,31,9.60
2015,11,15,15,32,9.60
2015,11,15,15,33,9.60
2015,11,15,15,34,11.30
2015,11,15,15,35,11.30
2015,11,15,15,36,17.70
2015,11,15,15,37,9.60
2015,11,15,15,38,9.60
2015,11,15,15,39,12.90
2015,11,15,15,40,12.90
2015,11,15,15,41,4.80
2015,11,15,15,42,16.10
2015,11,15,15,43,11.30
2015,11,15,15,44,8.10
2015,11,15,15,45,9.60
2015,11,15,15,46,12.90
2015,11,15,15,47,11.30
2015,11,15,15,48,6.40
2015,11,15,15,49,6.40
2015,11,15,15,50,6.40
2015,11,15,15,51,4.80
2015,11,15,15,52,4.80
2015,11,15,15,53,8.10
2015,11,15,15,54,6.40
2015,11,15,15,55,6.40
2015,11,15,15,56,3.20
2015,11,15,15,57,6.40
2015,11,15,15,58,3.20
2015,11,15,15,59,3.20
2015,11,15,16,01,1.60
2015,11,15,16,03,6.40
2015,11,15,16,04,6.40
2015,11,15,16,05,4.80
2015,11,15,16,06,6.40
2015,11,15,16,08,1.60
2015,11,15,16,09,1.60
2015,11,15,16,10,4.80
2015,11,15,16,11,4.80
2015,11,15,16,12,1.60
2015,11,15,16,13,1.60
2015,11,15,16,14,4.80
2015,11,15,16,15,4.80
2015,11,15,16,16,3.20
2015,11,15,16,24,3.20
2015,11,15,16,27,4.80
2015,11,15,16,28,4.80
2015,11,15,16,29,6.40
2015,11,15,16,30,3.20
2015,11,15,17,06,1.60
2015,11,15,17,09,1.60
2015,11,15,17,10,1.60
2015,11,15,17,11,3.20
2015,11,15,17,12,3.20
2015,11,15,17,23,3.20
2015,11,15,17,24,3.20
2015,11,15,17,27,1.60
2015,11,15,17,28,3.20
2015,11,15,17,36,1.60
2015,11,15,17,41,3.20
2015,11,15,17,42,3.20
2015,11,15,17,49,1.60
2015,11,15,18,19,1.60
2015,11,15,18,25,3.20
2015,11,15,18,26,1.60
2015,11,15,18,40,1.60
2015,11,15,19,35,1.60
2015,11,15,20,04,4.80
2015,11,15,20,05,3.20
2015,11,15,20,06,3.20
2015,11,15,20,08,1.60
2015,11,15,20,09,3.20
2015,11,15,20,10,1.60
2015,11,15,20,11,4.80
2015,11,15,20,12,4.80
2015,11,15,20,13,3.20
2015,11,15,20,41,1.60
2015,11,15,20,42,3.20
2015,11,15,21,16,3.20
2015,11,15,21,17,3.20
2015,11,15,21,19,1.60
2015,11,15,22,38,1.60
2015,11,15,23,14,3.20
